Home > Weather > Iasi > Past weeks

Flag for Romania Past Weather in Iasi, Romania — Yesterday and Last 2 Weeks

Now
90 °F

Passing clouds.


Feels Like: 87 °F
Forecast: 71 / 93 °F
Wind: 7 mph from Southeast

Location: Iasi Airport

Current Time: Jul 27, 2016 at 6:25:33 PM

Latest Report: Jul 27, 2016 at 6:00 PM


Visibility: N/A

Pressure: 29.98 "Hg

Humidity: 29%

Dew Point: 54 °F

Location of IasiLocation

Past Weather in Iasi — Graph

°F

Iasi Temperature Yesterday

Maximum temperature yesterday: 90 °F (at 2:00 PM)
Minimum temperature yesterday: 66 °F (at 5:00 AM)
Average temperature yesterday: 80 °F

High & Low Weather Summary for the Past Weeks

 TemperatureHumidityPressure
High93 °F (Jul 17, 3:00 PM)88% (Jul 18, 6:00 AM)30.04 "Hg (Jul 18, 6:00 AM)
Low57 °F (Jul 21, 5:00 AM)20% (Jul 22, 6:00 PM)29.71 "Hg (Jul 14, 5:00 PM)
Average75 °F51%29.93 "Hg
* Reported Jul 12 5:00 PM — Jul 27 5:00 PM, Iasi, Weather by CustomWeather, © 2016

Note: Actual official high and low records may vary slightly from our data, if they occured in-between our weather recording intervals... More about our weather records

Advertising

Iasi Weather History for the Previous 24 Hours

Scroll right to see more
 ConditionsComfort  
Time TempWeatherWind HumidityBarometerVisibility
5:00 PM
Wed, Jul 27
90 °FScattered clouds.8 mph29%29.98 "HgN/A
4:30 PM90 °FScattered clouds.9 mph29%29.98 "HgN/A
4:00 PM90 °FScattered clouds.9 mph31%29.98 "HgN/A
3:30 PM88 °FScattered clouds.6 mph31%29.98 "HgN/A
3:00 PM90 °FScattered clouds.5 mph29%30.01 "HgN/A
2:30 PM88 °FScattered clouds.3 mph33%30.01 "HgN/A
2:00 PM90 °FScattered clouds.2 mph31%30.01 "HgN/A
1:30 PM86 °FScattered clouds.6 mph35%30.01 "HgN/A
1:00 PM88 °FScattered clouds.2 mph35%30.01 "HgN/A
12:30 PM86 °FScattered clouds.2 mph35%30.04 "HgN/A
12:00 PM86 °FSunny.5 mph35%30.04 "Hg10 mi
11:30 AM86 °FSunny.2 mph40%30.04 "Hg10 mi
11:00 AM84 °FSunny.2 mph43%30.04 "Hg10 mi
10:30 AM81 °FSunny.2 mph51%30.04 "Hg10 mi
10:00 AM79 °FSunny.1 mph51%30.04 "Hg10 mi
9:30 AM75 °FSunny.3 mph54%30.04 "Hg10 mi
9:00 AM73 °FPassing clouds.3 mph61%30.04 "HgN/A
8:30 AM70 °FPassing clouds.3 mph69%30.04 "HgN/A
8:00 AM68 °FSunny.3 mph73%30.04 "Hg10 mi
7:30 AM66 °FPassing clouds.2 mph73%30.04 "HgN/A
7:00 AM64 °FSunny.3 mph78%30.04 "Hg10 mi
6:30 AM64 °FClear.3 mph78%30.01 "Hg10 mi
6:00 AM63 °FMild.2 mph83%30.01 "Hg6 mi
5:30 AM63 °FMild.3 mph83%30.01 "Hg6 mi
5:00 AM64 °FMild.5 mph78%30.01 "Hg6 mi
4:00 AM64 °FPassing clouds.2 mph73%30.01 "HgN/A
3:00 AM68 °FClear.No wind64%30.01 "Hg10 mi
2:00 AM70 °FClear.6 mph60%30.01 "Hg10 mi
1:00 AM73 °FClear.7 mph53%30.01 "Hg10 mi
12:00 AM73 °FClear.6 mph53%30.01 "Hg10 mi
11:00 PM
Tue, Jul 26
77 °FClear.5 mph47%30.01 "Hg10 mi
10:00 PM77 °FClear.8 mph47%30.01 "Hg10 mi
9:00 PM79 °FSunny.7 mph45%29.98 "Hg10 mi
8:30 PM81 °FSunny.6 mph39%29.98 "Hg10 mi
8:00 PM82 °FSunny.6 mph37%29.98 "Hg10 mi
7:30 PM84 °FSunny.7 mph35%29.98 "Hg10 mi
7:00 PM86 °FSunny.8 mph33%29.95 "Hg10 mi
6:30 PM88 °FSunny.9 mph31%29.95 "Hg10 mi
6:00 PM88 °FSunny.9 mph29%29.95 "Hg10 mi
Weather by CustomWeather, © 2016

See weather overviewHow to use our weather pages